FW0209 Weather Reports


time (UTC)temp
C
wind
direction
speed
KPH
gust
KPH
rain 1hr
cm
rain 24hr
cm
rain mn
cm
humidity
%
barometer
mb
20260507201527 16 215 0.0 0.0 0.00 0.20 0.05 67 1015.4
20260507200028 16 219 0.0 0.0 0.00 0.20 0.05 66 1015.4
20260507194607 17 220 0.0 0.0 0.00 0.20 0.05 64 1015.4
20260507193018 17 221 0.0 0.0 0.00 0.20 0.05 63 1015.3
20260507191541 17 219 0.0 4.8 0.00 0.20 0.05 63 1015.2
20260507190018 17 222 0.0 8.0 0.00 0.20 0.05 62 1015.1
20260507184530 18 221 3.2 11.3 0.00 0.20 0.05 62 1014.9
20260507183035 18 220 0.0 1.6 0.00 0.20 0.05 61 1014.9
20260507181528 18 220 4.8 14.5 0.00 0.20 0.05 60 1015.0
20260507180023 18 222 0.0 3.2 0.00 0.20 0.05 59 1015.0
20260507174524 19 223 0.0 12.9 0.00 0.20 0.05 57 1014.8
20260507173043 20 221 3.2 12.9 0.00 0.20 0.05 55 1014.7
20260507171523 20 259 0.0 3.2 0.00 0.20 0.05 52 1014.7
20260507170040 20 224 0.0 1.6 0.00 0.20 0.05 51 1014.5
20260507164551 20 224 1.6 16.1 0.00 0.20 0.05 52 1014.5
20260507163018 21 222 0.0 1.6 0.00 0.20 0.05 51 1014.5
20260507161540 21 225 0.0 3.2 0.00 0.20 0.05 50 1014.4
20260507160049 21 225 0.0 3.2 0.00 0.20 0.05 49 1014.4
20260507154548 21 221 0.0 11.3 0.00 0.20 0.05 50 1014.4
20260507153028 21 222 3.2 14.5 0.00 0.20 0.05 41 1014.5
20260507151527 21 222 0.0 4.8 0.00 0.20 0.05 40 1014.5
20260507150018 21 219 0.0 12.9 0.00 0.20 0.05 43 1014.5
20260507144512 22 215 0.0 16.1 0.00 0.20 0.05 48 1014.6
20260507143051 21 207 0.0 8.0 0.00 0.20 0.05 53 1014.7
20260507141519 20 206 4.8 16.1 0.00 0.20 0.05 51 1014.9
20260507140017 20 206 3.2 16.1 0.00 0.20 0.05 53 1015.1
20260507134526 20 206 0.0 1.6 0.00 0.20 0.05 53 1015.1
20260507133021 21 204 0.0 3.2 0.00 0.20 0.05 50 1015.3
20260507131516 21 207 1.6 16.1 0.00 0.20 0.05 49 1015.3
20260507130014 21 205 0.0 12.9 0.00 0.20 0.05 50 1015.4
20260507124537 21 203 0.0 16.1 0.00 0.20 0.05 51 1015.6
20260507123014 21 207 1.6 12.9 0.00 0.20 0.05 53 1015.6
20260507121529 21 211 8.0 12.9 0.00 0.20 0.05 52 1015.8
20260507120022 20 209 9.7 16.1 0.00 0.20 0.05 53 1015.8
20260507114511 21 236 9.7 17.7 0.00 0.20 0.05 51 1015.8
20260507113029 21 228 6.4 16.1 0.00 0.20 0.05 52 1015.9
20260507111530 21 227 3.2 11.3 0.00 0.20 0.05 53 1015.9
20260507110025 20 184 4.8 14.5 0.00 0.20 0.05 55 1015.9
20260507104527 20 227 0.0 0.0 0.00 0.20 0.05 53 1016.0
20260507103105 20 182 0.0 0.0 0.00 0.20 0.05 55 1016.2
20260507101543 18 190 0.0 0.0 0.00 0.20 0.05 56 1016.4
20260507100021 18 187 0.0 0.0 0.00 0.20 0.05 57 1016.6
20260507094522 18 189 0.0 0.0 0.00 0.20 0.05 59 1016.5
20260507093021 18 184 0.0 0.0 0.00 0.20 0.05 60 1016.6
20260507091535 17 184 0.0 0.0 0.00 0.20 0.05 63 1016.6
20260507090013 17 190 0.0 0.0 0.00 0.20 0.05 65 1016.8
20260507084549 17 191 0.0 0.0 0.00 0.20 0.05 65 1017.0
20260507083011 17 188 0.0 0.0 0.00 0.20 0.05 67 1017.0
20260507081530 16 188 0.0 0.0 0.00 0.20 0.05 67 1017.0
20260507080022 17 183 0.0 0.0 0.00 0.20 0.05 68 1017.1
20260507074523 16 189 0.0 0.0 0.00 0.41 0.05 70 1017.0
20260507073015 16 188 0.0 0.0 0.00 0.41 0.05 72 1016.9
20260507071515 15 186 0.0 0.0 0.00 0.41 0.05 76 1016.9
20260507070016 13 184 0.0 0.0 0.00 0.41 0.05 81 1016.9
20260507064514 12 192 0.0 0.0 0.00 0.41 0.05 84 1017.0
20260507063015 12 157 1.6 9.7 0.00 0.41 0.05 86 1016.9
20260507061512 11 149 3.2 8.0 0.00 0.41 0.05 87 1017.0
20260507060046 11 147 0.0 4.8 0.00 0.41 0.05 88 1017.0
20260507054545 11 145 0.0 1.6 0.00 0.41 0.05 88 1017.0
20260507053020 11 149 0.0 8.0 0.00 0.41 0.05 88 1016.9
20260507051538 11 147 3.2 8.0 0.00 0.41 0.05 88 1016.9
20260507050011 11 146 0.0 6.4 0.00 0.41 0.05 88 1016.7
20260507044530 10 146 3.2 6.4 0.00 0.41 0.05 88 1016.6
20260507043029 10 147 0.0 0.0 0.10 0.41 0.05 88 1016.5
20260507041532 10 148 4.8 9.7 0.10 0.41 0.05 87 1016.4
20260507040049 10 147 3.2 9.7 0.10 0.41 0.05 87 1016.3
20260507034527 10 147 8.0 14.5 0.10 0.61 0.05 86 1016.2
20260507033028 11 146 4.8 14.5 0.00 0.51 0.03 86 1016.2
20260507031526 11 146 6.4 11.3 0.00 0.51 0.03 85 1016.2
20260507030045 11 148 6.4 16.1 0.00 0.51 0.03 83 1016.0
20260507024547 11 148 8.0 11.3 0.00 0.71 0.03 81 1015.9
20260507023046 11 148 3.2 11.3 0.00 0.71 0.03 80 1016.0
20260507021524 11 154 6.4 11.3 0.00 0.71 0.03 80 1015.9
20260507020027 12 153 4.8 12.9 0.00 0.71 0.03 80 1016.1
20260507014526 12 152 3.2 8.0 0.00 0.71 0.03 80 1015.9
20260507013027 12 151 1.6 9.7 0.00 0.71 0.03 79 1015.9
20260507011525 12 152 1.6 4.8 0.00 0.71 0.03 78 1015.8
20260507010022 12 152 1.6 4.8 0.00 0.71 0.03 78 1015.9
20260507004524 12 151 3.2 8.0 0.00 0.71 0.03 78 1015.9
20260507003016 12 152 0.0 3.2 0.00 0.71 0.03 78 1015.8
20260507001517 12 152 0.0 9.7 0.00 0.71 0.03 77 1015.8
20260507000049 12 152 1.6 11.3 0.10 0.71 0.03 77 1016.0
20260506234526 12 153 0.0 9.7 0.10 0.71 0.03 77 1016.1
20260506233043 12 153 1.6 8.0 0.10 0.71 0.03 77 1016.2
20260506231545 12 150 1.6 4.8 0.10 0.71 0.03 76 1016.2
20260506230043 13 152 0.0 8.0 0.00 0.61 0.00 75 1016.4
20260506224520 13 155 0.0 4.8 0.00 0.61 0.15 73 1016.5
20260506223040 13 164 3.2 9.7 0.00 0.61 0.15 72 1016.6
20260506221515 13 164 0.0 3.2 0.00 0.61 0.15 71 1016.6
20260506220034 13 165 0.0 8.0 0.00 0.61 0.15 71 1016.7
20260506214513 13 166 0.0 16.1 0.00 0.61 0.15 71 1016.5
20260506213029 13 167 3.2 12.9 0.00 0.61 0.15 70 1016.7
20260506211531 13 167 6.4 12.9 0.00 0.61 0.15 69 1016.7
20260506210025 13 168 3.2 12.9 0.00 0.61 0.15 69 1016.9
20260506204525 13 169 1.6 19.3 0.00 0.61 0.15 70 1016.8
20260506203042 14 172 4.8 12.9 0.00 0.61 0.15 69 1016.8